Regional Weather Roundup
Issued by NWS Cleveland, OH

Home | Current Version | Previous Version | Graphics & Text | Print | Product List | Glossary On
Versions: 1 2 3 4 5 6 7 8 9 10 11 12 13 14 15 16 17 18 19 20 21 22 23 24 25 26 27 28 29 30 31 32 33 34 35 36 37 38 39 40 41 42 43 44 45 46 47 48 49 50
000
ASUS41 KCLE 212010
RWRCLE
OHIO REGIONAL WEATHER ROUNDUP
NATIONAL WEATHER SERVICE WILMINGTON, OH
400 PM EDT SAT APR 21 2018

NOTE: "FAIR" INDICATES FEW OR NO CLOUDS BELOW 12,000 FEET WITH NO
SIGNIFICANT WEATHER AND/OR OBSTRUCTIONS TO VISIBILITY.

OHZ001>008-015>018-024>027-034-035-043-044-212100-
   NORTHWEST OHIO

CITY           SKY/WX    TMP DP  RH WIND       PRES   REMARKS
DEFIANCE       FAIR      54  25  32 E7        30.40F
FINDLAY        FAIR      55  21  26 E8        30.39F
TOLEDO EXPRESS FAIR      56  26  31 NE5       30.41F
TOLEDO EXEC    FAIR      52  24  33 E6        30.43F
LIMA           FAIR      55  27  34 NE8       30.38F
$$

OHZ009>014-019>023-028>033-038-089-212100-
   NORTHEAST OHIO

CITY           SKY/WX    TMP DP  RH WIND       PRES   REMARKS
CLE-HOPKINS    CLOUDY    48  22  35 N8        30.44F
CLE-LAKEFRONT  FAIR      43  36  76 NE10      30.42F
CUY CO. ARPT   CLOUDY    48  27  43 N9        30.42F
LORAIN-ELYRIA  FAIR      49  13  23 N7        30.42F
ASHTABULA      FAIR      49  28  44 N10       30.42F
AKRON-CANTON   CLOUDY    55  18  23 NE7       30.38F
WOOSTER        FAIR      53  20  27 CALM      30.39F
MANSFIELD      FAIR      53  15  22 W6        30.39F
YOUNGSTOWN     CLOUDY    55  23  28 NW7       30.38F
$$

OHZ042-051>053-060>062-070>072-077>081-212100-
  SOUTHWEST OHIO

CITY           SKY/WX    TMP DP  RH WIND       PRES   REMARKS
CINC-COVINGTON CLOUDY    61  20  20 E5        30.33F
CINC-LUNKEN    FAIR      62  28  27 NE8       30.34F
HAMILTON       FAIR      62  27  26 VRB6      30.35F
DAYTON         CLOUDY    56  21  25 E8        30.37F
WRIGHT-PAT AFB PTSUNNY   56  21  25 NE5       30.36F
DAYTON GENERAL FAIR      59  22  24 NE7       30.35F
WILMINGTON     FAIR      57  28  33 NE8       30.35F
$$

OHZ036-037-039>041-045>050-054>059-063>069-073>076-082>088-212100-
  CENTRAL AND SOUTHEAST OHIO

CITY           SKY/WX    TMP DP  RH WIND       PRES   REMARKS
COLUMBUS       CLOUDY    59  18  20 VRB5      30.37F
OSU AIRPORT    FAIR      56  17  21 VRB5      30.37F
BOLTON FIELD   PTSUNNY   59  23  25 CALM      30.38F
RICKENBACK AFB FAIR      58  21  24 NE6       30.37F
NEWARK         FAIR      58  20  22 E3        30.36F
MARION         FAIR      52  18  26 NE12      30.39F
LANCASTER      FAIR      59  26  28 N6        30.37F
ZANESVILLE     FAIR      59  20  22 NE5       30.36F
NEW PHILLY     FAIR      57  22  25 N6        30.38F
$$




USA.gov is the U.S. government's official web portal to all federal, state and local government web resources and services.